Regional Weather Roundup
Issued by NWS

Home | Current Version | Previous Version | Graphics & Text | Print | Product List | Glossary On
Versions: 1 2 3 4 5 6 7 8 9 10 11 12 13 14 15 16 17 18 19 20 21 22 23 24 25 26 27 28 29 30 31 32 33 34 35 36 37 38 39 40 41 42 43 44 45 46 47 48 49 50
000
ASUS43 KMKX 162221
RWRWI

WISCONSIN REGIONAL WEATHER ROUNDUP
NATIONAL WEATHER SERVICE MILWAUKEE/SULLIVAN WI
500 PM CDT WED AUG 16 2017

NOTE: "FAIR" INDICATES FEW OR NO CLOUDS BELOW 12,000 FEET WITH NO
SIGNIFICANT WEATHER AND/OR OBSTRUCTIONS TO VISIBILITY.

WIZ001-002-006>008-014>016-023>028-162300-
NORTHWEST WISCONSIN

CITY           SKY/WX    TMP DP  RH WIND       PRES   REMARKS
SUPERIOR ARPT  LGT RAIN  61  61  99 NE13G20   29.90S
ASHLAND        PTSUNNY   72  61  68 NE12      29.90F
HAYWARD        CLOUDY    75  62  64 SE10      29.87F
SIREN          PTSUNNY   75  65  69 SE6       29.84F
CUMBERLAND     CLOUDY    73  63  68 SE10      29.84F
RICE LAKE      CLOUDY    77  66  68 E9        29.85F
CHETEK         PTSUNNY   76  67  73 MISG      29.84F
LADYSMITH      CLOUDY    77  64  63 E10       29.89F
EAU CLAIRE     CLOUDY    80  66  62 E10       29.81F HX  82
MENOMONIE      MOSUNNY   79  67  68 E10       29.82F HX  81
NEW RICHMOND   PTSUNNY   76  66  71 E8        29.81F
OSCEOLA        MOSUNNY   77  67  72 E9        29.83F
$$

WIZ003>005-009-010-017-018-162300-
NORTH CENTRAL WISCONSIN

CITY           SKY/WX    TMP DP  RH WIND       PRES   REMARKS
MANITOWISH WTR CLOUDY    72  61  67 SE6       29.94F
ARBOR VITAE    MOSUNNY   77  62  60 SE8       29.94S
WOODRUFF       MOSUNNY   77  62  60 SE8       29.94S
RHINELANDER    CLOUDY    74  61  63 E9        29.96F
EAGLE RIVER    SUNNY     73  55  53 SE5       29.95F
LAND O LAKES   SUNNY     74  55  50 SE7       29.97F
PHILLIPS       CLOUDY    74  63  69 SE8       29.91F
TOMAHAWK         N/A     73  60  64 E5        29.94S
MEDFORD        CLOUDY    72  64  74 E8        29.90F
MERRILL        CLOUDY    73  63  68 SE9       29.93F
$$

WIZ029-030-035-036-043>047-162300-
CENTRAL WISCONSIN

CITY           SKY/WX    TMP DP  RH WIND       PRES   REMARKS
WAUSAU         MOSUNNY   74  62  66 SE10      29.90F
MOSINEE        MOSUNNY   73  64  73 E12       29.93F
MARSHFIELD     CLOUDY    76  62  62 E15       29.88F
STEVENS POINT  MOSUNNY   74  62  64 E13       29.91F
WAUPACA        PTSUNNY   80  65  59 E10       29.91F HX  82
WAUTOMA        NOT AVBL
WISC RAPIDS    CLOUDY    78  65  63 E13       29.89F HX  80
CAMP DOUGLAS   PTSUNNY   81  68  65 E15       29.84F HX  83
$$

WIZ011>013-019>022-031-037>040-048>050-162300-
NORTHEAST WISCONSIN

CITY           SKY/WX    TMP DP  RH WIND       PRES   REMARKS
ANTIGO         CLOUDY    73  61  66 SE10      29.96F
SHAWANO        CLOUDY    77  64  63 E7        29.94F
OCONTO         SUNNY     72  62  69 E6        29.95S
STURGEON BAY   SUNNY     71  59  65 SE7       29.97
GREEN BAY      MOSUNNY   76  66  71 E8        29.94F
MANITOWOC      SUNNY     73  61  65 E8        29.95F
APPLETON       PTSUNNY   77  57  50 SE9       29.92F
CLINTONVILLE   CLOUDY    73  61  64 E7        29.93S
OSHKOSH        CLOUDY    77  65  66 E12       29.91F
$$

WIZ032>034-041-042-053>061-162300-
SOUTHWEST WISCONSIN

CITY           SKY/WX    TMP DP  RH WIND       PRES   REMARKS
LA CROSSE      CLOUDY    85  69  58 E12G22    29.77F HX  89
SPARTA         CLOUDY    81  67  64 SE12G18   29.82F HX  83
VIROQUA        CLOUDY    76  70  80 E12       29.82F
BOSCOBEL       LGT RAIN  77  73  87 CALM      29.81F FOG
PRAIRIE DU CHI CLOUDY    76  71  86 SE7       29.79S
PLATTEVILLE    CLOUDY    74  74 100 SE14G21   29.84F
$$

WIZ056-057-062-063-064-067-068-162300-
SOUTH CENTRAL WISCONSIN

CITY           SKY/WX    TMP DP  RH WIND       PRES   REMARKS
REEDSBURG      PTSUNNY   81  69  67 E8        29.84F HX  84
BARABOO/DELLS  MOSUNNY   80  65  61 E12       29.85F HX  82
LONE ROCK      LGT RAIN  79  73  82 SE9       29.82F HX  82
MINERAL POINT  LGT RAIN  75  75 100 SE10      29.86S
MADISON        CLOUDY    81  70  69 E12       29.85F HX  84
MIDDLETON      PTSUNNY   82  69  66 SE9       29.86S HX  85
WATERTOWN      MOSUNNY   79  69  71 E10       29.88F HX  81
MONROE         RAIN      75  70  83 SE12      29.87R
JANESVILLE     DRIZZLE   82  72  69 SE8       29.85F HX  87
$$

WIZ051-052-058>065-066-070>072-162300-
SOUTHEAST WISCONSIN

CITY           SKY/WX    TMP DP  RH WIND       PRES   REMARKS
MILWAUKEE      PTSUNNY   76  66  71 E12       29.92F
WAUKESHA       SUNNY     77  64  65 E13       29.92F
MILWAUKEE/TIMM SUNNY     75  61  60 E7        29.93F
RACINE         SUNNY     77  68  73 NE9       29.93F
KENOSHA        SUNNY     76  68  76 E12       29.91F
FOND DU LAC    MOSUNNY   78  63  59 SE10      29.91F HX  80
SHEBOYGAN      MOSUNNY   72  66  81 E8        29.94F
WEST BEND      CLOUDY    73  63  68 E13       29.92F
JUNEAU         PTSUNNY   78  66  66 E10G16    29.91F HX  80
$$

LSZ147-162-162300-
LAKE SUPERIOR

STATION/POSITION TIME  TEMP    WIND        PRES    WAVE
                       AIR SEA DIR/SP/G            HT/PER
                 (UTC) (F)     (DEG/KT/KT) (MB)    (FT/S)
W MID LAKE BUOY  2150   62 61   50/ 12/ 14 1013.6F   1/ 3
DEVILS ISLAND    2200   62      50/ 15/ 17 1013.3F
SAXON HARBOR     2140   68      50/ 14/ 15 1011.9F
$$

LMZ867-665-643>646-162300-
LAKE MICHIGAN

STATION/POSITION TIME  TEMP    WIND        PRES    WAVE
                       AIR SEA DIR/SP/G            HT/PER
                 (UTC) (F)     (DEG/KT/KT) (MB)    (FT/S)
S GREEN BAY BUOY 2200   70 72   60/ 12/ 16 1014.1
N MID LAKE BUOY  2150   69 69   70/  8/ 10 1015.3F   1
NORTHPORT PIER   2140   68      70/  8/  9 1014.9F
KEWAUNEE LAKESHO 2200   71      50/  4/  8 1013.7
SHEBOYGAN LAKESH 2200   69      50/  9/ 10 1013.5F
PORT WASHINGTON  2140   73      60/  7/ 10 1014.6F
ATWATER BUOY     2139   72      60/ 10/ 12 1013.3F
MILWAUKEE LAKESH 2200   72      50/  9/ 10   N/A
S MID LAKE BUOY  2150   74 73   50/ 10/ 12 1012.9F   1
KENOSHA   LAKESH 2200   73      60/  6/  8 1012.2
$$

TC  - TEMPERATURE IN CELSIUS
VSB - VISIBILITY IN STATUTE MILES
WCI - WIND CHILL INDEX
HX  - HEAT INDEX




USA.gov is the U.S. government's official web portal to all federal, state and local government web resources and services.